APG215 RPVE-RPLL

Flight info

Callsign APG215
Flight time 0h 39m
Altitude 20000
Route MINOR8A MINOR B473 LAIYA LAIYA1A
Aircraft A320/M-SDE3FGHIRWY/LB1

Departure

Time 2026-05-07 06:18
Airport Godofredo P. Ramos Airport (RPVE)

Arrival

Time 2026-05-07 06:57
Airport Ninoy Aquino International Airport (RPLL)
Time Latitude Longitude Altitude Speed Heading
2026-05-07 05:50 11.92664 121.96418 34 ft 0 kts 153°
2026-05-07 06:10 11.92665 121.96418 32 ft 2 kts 153°
2026-05-07 06:10 11.92674 121.96413 30 ft 2 kts 153°
2026-05-07 06:10 11.92684 121.96408 32 ft 2 kts 153°
2026-05-07 06:10 11.92693 121.96403 32 ft 2 kts 156°
2026-05-07 06:11 11.92704 121.96399 30 ft 2 kts 180°
2026-05-07 06:11 11.92714 121.96401 31 ft 2 kts 203°
2026-05-07 06:11 11.92723 121.96406 29 ft 2 kts 226°
2026-05-07 06:11 11.92730 121.96414 29 ft 2 kts 244°
2026-05-07 06:12 11.92730 121.96415 29 ft 0 kts 244°
2026-05-07 06:12 11.92728 121.96411 29 ft 0 kts 244°
2026-05-07 06:12 11.92727 121.96409 29 ft 0 kts 244°
2026-05-07 06:14 11.92722 121.96398 31 ft 5 kts 244°
2026-05-07 06:14 11.92689 121.96331 31 ft 16 kts 240°
2026-05-07 06:14 11.92651 121.96210 30 ft 17 kts 303°
2026-05-07 06:15 11.92758 121.96144 30 ft 19 kts 333°
2026-05-07 06:15 11.92778 121.96042 30 ft 18 kts 240°
2026-05-07 06:15 11.92714 121.95919 28 ft 21 kts 243°
2026-05-07 06:15 11.92642 121.95774 27 ft 24 kts 243°
2026-05-07 06:16 11.92561 121.95610 26 ft 28 kts 243°
2026-05-07 06:16 11.92470 121.95426 23 ft 30 kts 243°
2026-05-07 06:16 11.92371 121.95229 20 ft 31 kts 243°
2026-05-07 06:16 11.92271 121.95063 21 ft 21 kts 221°
2026-05-07 06:17 11.92256 121.95017 21 ft 3 kts 357°
2026-05-07 06:17 11.92276 121.95041 21 ft 9 kts 54°
2026-05-07 06:17 11.92354 121.95192 20 ft 51 kts 63°
2026-05-07 06:17 11.92636 121.95755 28 ft 124 kts 63°
2026-05-07 06:18 11.93060 121.96611 520 ft 129 kts 62°
2026-05-07 06:18 11.93436 121.97357 1432 ft 116 kts 61°
2026-05-07 06:18 11.93850 121.98129 1892 ft 133 kts 60°
2026-05-07 06:18 11.94364 121.99001 2290 ft 152 kts 59°
2026-05-07 06:19 11.94953 121.99948 2817 ft 163 kts 58°
2026-05-07 06:19 11.95596 122.00924 3425 ft 167 kts 56°
2026-05-07 06:19 11.96317 122.01862 4100 ft 168 kts 49°
2026-05-07 06:19 11.97260 122.02601 4668 ft 180 kts 34°
2026-05-07 06:20 11.98399 122.03286 4971 ft 199 kts 33°
2026-05-07 06:20 11.99667 122.04042 5287 ft 221 kts 33°
2026-05-07 06:20 12.01054 122.04859 5631 ft 245 kts 32°
2026-05-07 06:20 12.02595 122.05761 6104 ft 264 kts 32°
2026-05-07 06:21 12.04233 122.06715 6846 ft 269 kts 32°
2026-05-07 06:21 12.05851 122.07658 7617 ft 274 kts 32°
2026-05-07 06:21 12.07556 122.08618 8393 ft 279 kts 29°
2026-05-07 06:21 12.09313 122.09500 9165 ft 284 kts 29°
2026-05-07 06:22 12.11073 122.10387 9910 ft 287 kts 29°
2026-05-07 06:22 12.14851 122.12306 10599 ft 325 kts 29°
2026-05-07 06:22 12.16934 122.13364 10919 ft 340 kts 28°
2026-05-07 06:23 12.19072 122.14445 11582 ft 344 kts 28°
2026-05-07 06:23 12.21230 122.15536 12260 ft 348 kts 28°
2026-05-07 06:23 12.23411 122.16640 12929 ft 352 kts 28°
2026-05-07 06:23 12.25616 122.17757 13600 ft 356 kts 28°
2026-05-07 06:24 12.27841 122.18884 14203 ft 358 kts 28°
2026-05-07 06:24 12.30082 122.20020 14818 ft 361 kts 28°
2026-05-07 06:24 12.32237 122.21114 15360 ft 364 kts 28°
2026-05-07 06:24 12.34051 122.21862 15793 ft 369 kts 17°
2026-05-07 06:25 12.36616 122.22159 16375 ft 376 kts 359°
2026-05-07 06:25 12.39190 122.21617 16908 ft 383 kts 341°
2026-05-07 06:25 12.41553 122.20305 17450 ft 390 kts 328°
2026-05-07 06:25 12.43801 122.18736 17996 ft 393 kts 327°
2026-05-07 06:26 12.46050 122.17128 18475 ft 396 kts 327°
2026-05-07 06:26 12.48321 122.15511 18939 ft 399 kts 327°
2026-05-07 06:26 12.50611 122.13899 19401 ft 402 kts 327°
2026-05-07 06:26 12.52933 122.12276 19725 ft 405 kts 327°
2026-05-07 06:27 12.55262 122.10654 19823 ft 405 kts 328°
2026-05-07 06:27 12.57585 122.09039 19839 ft 405 kts 328°
2026-05-07 06:27 12.59893 122.07434 19844 ft 405 kts 328°
2026-05-07 06:27 12.62227 122.05812 19843 ft 405 kts 327°
2026-05-07 06:28 12.64547 122.04198 19841 ft 398 kts 327°
2026-05-07 06:28 12.66783 122.02641 19841 ft 380 kts 328°
2026-05-07 06:28 12.68921 122.01150 19841 ft 363 kts 328°
2026-05-07 06:28 12.70966 121.99726 19840 ft 347 kts 328°
2026-05-07 06:29 12.72912 121.98370 19838 ft 331 kts 328°
2026-05-07 06:29 12.74772 121.97074 19843 ft 315 kts 328°
2026-05-07 06:29 12.76546 121.95838 19842 ft 303 kts 328°
2026-05-07 06:29 12.78329 121.94601 19845 ft 320 kts 328°
2026-05-07 06:30 12.80235 121.93280 19810 ft 342 kts 328°
2026-05-07 06:30 12.82247 121.91883 19818 ft 353 kts 328°
2026-05-07 06:30 12.84278 121.90467 19816 ft 352 kts 328°
2026-05-07 06:30 12.86296 121.89058 19811 ft 351 kts 328°
2026-05-07 06:31 12.88320 121.87645 19743 ft 352 kts 328°
2026-05-07 06:31 12.90215 121.86323 19637 ft 351 kts 327°
2026-05-07 06:31 12.92229 121.84918 19522 ft 350 kts 327°
2026-05-07 06:31 12.94246 121.83512 19407 ft 350 kts 327°
2026-05-07 06:32 12.96255 121.82110 19296 ft 349 kts 327°
2026-05-07 06:32 12.98256 121.80714 19171 ft 348 kts 328°
2026-05-07 06:32 13.00257 121.79317 19069 ft 348 kts 327°
2026-05-07 06:32 13.02232 121.77938 18957 ft 347 kts 328°
2026-05-07 06:33 13.04147 121.76602 18851 ft 347 kts 327°
2026-05-07 06:33 13.06138 121.75211 18736 ft 346 kts 327°
2026-05-07 06:33 13.08128 121.73821 18629 ft 346 kts 327°
2026-05-07 06:33 13.10114 121.72434 18519 ft 345 kts 327°
2026-05-07 06:34 13.12100 121.71046 18408 ft 344 kts 327°
2026-05-07 06:34 13.14072 121.69667 18299 ft 343 kts 327°
2026-05-07 06:34 13.16047 121.68287 18194 ft 343 kts 327°
2026-05-07 06:34 13.18020 121.66908 18068 ft 343 kts 327°
2026-05-07 06:35 13.19974 121.65541 17942 ft 342 kts 327°
2026-05-07 06:35 13.21939 121.64166 17815 ft 341 kts 327°
2026-05-07 06:35 13.23899 121.62795 17687 ft 341 kts 327°
2026-05-07 06:35 13.25861 121.61423 17560 ft 340 kts 327°
2026-05-07 06:36 13.27815 121.60055 17434 ft 339 kts 327°
2026-05-07 06:36 13.29763 121.58691 17311 ft 339 kts 327°
2026-05-07 06:36 13.31707 121.57330 17181 ft 338 kts 327°
2026-05-07 06:36 13.33652 121.55968 17060 ft 337 kts 327°
2026-05-07 06:37 13.35561 121.54631 16940 ft 337 kts 327°
2026-05-07 06:37 13.37500 121.53273 16815 ft 337 kts 327°
2026-05-07 06:37 13.39433 121.51918 16692 ft 336 kts 327°
2026-05-07 06:37 13.41368 121.50562 16570 ft 336 kts 327°
2026-05-07 06:38 13.43298 121.49210 16442 ft 335 kts 327°
2026-05-07 06:38 13.45224 121.47859 16326 ft 335 kts 327°
2026-05-07 06:38 13.47145 121.46511 16201 ft 334 kts 327°
2026-05-07 06:38 13.49062 121.45167 16086 ft 333 kts 327°
2026-05-07 06:39 13.50975 121.43824 15965 ft 333 kts 327°
2026-05-07 06:39 13.52883 121.42485 15866 ft 331 kts 327°
2026-05-07 06:39 13.54786 121.41150 15843 ft 331 kts 327°
2026-05-07 06:39 13.56697 121.39809 15852 ft 333 kts 327°
2026-05-07 06:40 13.58598 121.38457 15844 ft 333 kts 326°
2026-05-07 06:40 13.60478 121.37060 15847 ft 333 kts 325°
2026-05-07 06:40 13.62327 121.35666 15842 ft 333 kts 325°
2026-05-07 06:40 13.64194 121.34261 15841 ft 333 kts 326°
2026-05-07 06:41 13.66079 121.32848 15660 ft 336 kts 326°
2026-05-07 06:41 13.67970 121.31436 15312 ft 336 kts 326°
2026-05-07 06:41 13.69859 121.30029 14955 ft 333 kts 326°
2026-05-07 06:41 13.71729 121.28637 14610 ft 331 kts 326°
2026-05-07 06:42 13.73583 121.27254 14267 ft 328 kts 325°
2026-05-07 06:42 13.75421 121.25883 13926 ft 325 kts 325°
2026-05-07 06:42 13.77244 121.24524 13588 ft 322 kts 325°
2026-05-07 06:42 13.79048 121.23176 13203 ft 319 kts 325°
2026-05-07 06:43 13.80842 121.21836 12832 ft 317 kts 325°
2026-05-07 06:43 13.82617 121.20512 12450 ft 315 kts 325°
2026-05-07 06:43 13.84386 121.19192 12091 ft 313 kts 325°
2026-05-07 06:43 13.86137 121.17884 11731 ft 311 kts 325°
2026-05-07 06:44 13.87888 121.16574 11374 ft 310 kts 325°
2026-05-07 06:44 13.89635 121.15268 11013 ft 309 kts 326°
2026-05-07 06:44 13.91366 121.13977 10663 ft 307 kts 325°
2026-05-07 06:44 13.93090 121.12689 10322 ft 305 kts 326°
2026-05-07 06:45 13.94808 121.11408 9975 ft 304 kts 325°
2026-05-07 06:45 13.96510 121.10137 9622 ft 301 kts 325°
2026-05-07 06:45 13.98193 121.08878 9240 ft 297 kts 326°
2026-05-07 06:45 13.99828 121.07655 9033 ft 294 kts 326°
2026-05-07 06:46 14.00928 121.06833 8992 ft 294 kts 326°
2026-05-07 06:46 14.02965 121.05306 8879 ft 280 kts 326°
2026-05-07 06:46 14.04495 121.04159 8670 ft 273 kts 326°
2026-05-07 06:46 14.06012 121.03024 8512 ft 267 kts 326°
2026-05-07 06:47 14.07539 121.01883 8398 ft 275 kts 326°
2026-05-07 06:47 14.09101 121.00717 8107 ft 278 kts 326°
2026-05-07 06:47 14.10645 120.99564 7884 ft 272 kts 326°
2026-05-07 06:47 14.12179 120.98414 7555 ft 271 kts 326°
2026-05-07 06:48 14.13695 120.97270 7243 ft 270 kts 326°
2026-05-07 06:48 14.15219 120.96130 6919 ft 270 kts 326°
2026-05-07 06:48 14.16716 120.95013 6639 ft 269 kts 326°
2026-05-07 06:48 14.18299 120.93990 6393 ft 266 kts 333°
2026-05-07 06:49 14.19818 120.93102 6309 ft 257 kts 332°
2026-05-07 06:49 14.21345 120.92197 6183 ft 249 kts 332°
2026-05-07 06:49 14.22838 120.91313 5905 ft 248 kts 333°
2026-05-07 06:49 14.24333 120.90427 5682 ft 246 kts 333°
2026-05-07 06:50 14.25816 120.89543 5355 ft 246 kts 333°
2026-05-07 06:50 14.27298 120.88667 5095 ft 244 kts 333°
2026-05-07 06:50 14.28740 120.87814 4997 ft 232 kts 334°
2026-05-07 06:50 14.30152 120.86990 4964 ft 240 kts 334°
2026-05-07 06:51 14.31642 120.86126 4761 ft 248 kts 334°
2026-05-07 06:51 14.33104 120.85274 4519 ft 244 kts 334°
2026-05-07 06:51 14.34569 120.84416 4281 ft 239 kts 334°
2026-05-07 06:51 14.36005 120.83572 4031 ft 236 kts 334°
2026-05-07 06:52 14.37439 120.82737 3794 ft 237 kts 336°
2026-05-07 06:52 14.38981 120.82346 3548 ft 225 kts
2026-05-07 06:52 14.40417 120.82849 3321 ft 215 kts 41°
2026-05-07 06:52 14.41316 120.84000 3085 ft 206 kts 63°
2026-05-07 06:53 14.41930 120.85322 2840 ft 203 kts 68°
2026-05-07 06:53 14.42492 120.86606 2681 ft 185 kts 67°
2026-05-07 06:53 14.43033 120.87750 2421 ft 175 kts 64°
2026-05-07 06:53 14.43589 120.88850 2149 ft 170 kts 63°
2026-05-07 06:54 14.44163 120.89917 1854 ft 170 kts 63°
2026-05-07 06:54 14.44735 120.90959 1747 ft 163 kts 62°
2026-05-07 06:54 14.45307 120.91988 1734 ft 170 kts 62°
2026-05-07 06:54 14.45905 120.93065 1699 ft 169 kts 62°
2026-05-07 06:55 14.46483 120.94052 1583 ft 156 kts 61°
2026-05-07 06:55 14.47037 120.95021 1351 ft 157 kts 63°
2026-05-07 06:55 14.47581 120.96004 1146 ft 155 kts 62°
2026-05-07 06:55 14.48095 120.96908 847 ft 143 kts 63°
2026-05-07 06:56 14.48616 120.97874 634 ft 158 kts 65°
2026-05-07 06:56 14.49149 120.98846 407 ft 154 kts 64°
2026-05-07 06:56 14.49653 120.99751 188 ft 138 kts 65°
2026-05-07 06:56 14.50104 121.00574 66 ft 124 kts 65°
2026-05-07 06:57 14.50432 121.01176 58 ft 67 kts 60°
2026-05-07 06:57 14.50577 121.01436 56 ft 32 kts 59°
2026-05-07 06:57 14.50722 121.01674 49 ft 40 kts 47°
2026-05-07 06:57 14.50865 121.01782 37 ft 17 kts
2026-05-07 06:58 14.50878 121.01690 36 ft 15 kts 239°
2026-05-07 06:58 14.50825 121.01595 44 ft 19 kts 239°
2026-05-07 06:58 14.50735 121.01436 51 ft 29 kts 239°
2026-05-07 06:58 14.50694 121.01349 53 ft 15 kts 267°
2026-05-07 06:59 14.50767 121.01310 50 ft 9 kts 337°
2026-05-07 06:59 14.50820 121.01278 47 ft 0 kts 331°
2026-05-07 06:59 14.50827 121.01273 47 ft 4 kts 331°
2026-05-07 06:59 14.50831 121.01271 47 ft 0 kts 331°